Flag for Canada Weather past 2 weeks in Rankin Inlet, Nunavut Territory, Canada

Now
52 °F

Overcast.


Feels Like: 48 °F
Forecast: 46 / 65 °F
Wind: 12 mph from Northwest

Location: Rankin Inlet

Current Time: Jul 22, 2014 at 6:40:00 AM

Latest Report: Jul 22, 2014 at 6:00 AM


Visibility: 15 mi

Pressure: 29.96 "Hg

Humidity: 82%

Dew point: 46 °F

Location of Rankin InletLocation

Historic Weather in Rankin Inlet — Graph

°F

Rankin Inlet temperature yesterday

Maximum temperature yesterday: 61 °F (at 5:00 PM)
Minimum temperature yesterday: 41 °F (at 4:00 AM)
Average temperature yesterday: 53 °F

Past Weeks' High & Low Weather Summary

 TemperatureHumidityPressure
High75 °F (Jul 15, 5:00 PM)100% (Jul 7, 9:00 AM)30.27 "Hg (Jul 7, 9:00 AM)
Low41 °F (Jul 11, 12:00 AM)46% (Jul 14, 2:00 PM)29.23 "Hg (Jul 17, 8:00 AM)
Average53 °F77%29.73 "Hg
* Reported Jul 7 5:00 AM — Jul 22 5:00 AM, Rankin Inlet, Weather by CustomWeather, © 2014

Note: Actual official high and low records may vary slightly from our data, if they occured in-between our weather recording intervals... More about our weather records

Advertising

Rankin Inlet weather history for previous 24 hours

 ConditionsComfort  
Time TempWeatherWind HumidityBarometerVisibility
5:00 AM
Jul 22
52 °FOvercast.13 mph82%29.94 "Hg15 mi
4:00 AM52 °FOvercast.12 mph82%29.93 "Hg15 mi
3:00 AM52 °FOvercast.12 mph77%29.92 "Hg15 mi
2:00 AM52 °FOvercast.10 mph77%29.90 "Hg15 mi
1:00 AM52 °FOvercast.9 mph77%29.89 "Hg15 mi
12:00 AM54 °FOvercast.15 mph72%29.87 "Hg15 mi
11:00 PM
Jul 21
55 °FOvercast.13 mph67%29.86 "Hg15 mi
10:00 PM55 °FOvercast.14 mph67%29.85 "Hg15 mi
9:00 PM57 °FOvercast.15 mph59%29.83 "Hg15 mi
8:00 PM57 °FOvercast.15 mph63%29.82 "Hg15 mi
7:00 PM57 °FOvercast.20 mph63%29.80 "Hg15 mi
6:00 PM59 °FPartly sunny.18 mph59%29.79 "Hg15 mi
5:00 PM61 °FPartly sunny.16 mph55%29.78 "Hg15 mi
4:00 PM59 °FOvercast.15 mph59%29.76 "Hg15 mi
3:00 PM59 °FOvercast.16 mph59%29.75 "Hg15 mi
2:00 PM59 °FOvercast.17 mph59%29.73 "Hg15 mi
1:00 PM59 °FPartly sunny.12 mph63%29.71 "Hg15 mi
12:00 PM59 °FPartly sunny.14 mph63%29.70 "Hg15 mi
11:00 AM57 °FBroken clouds.14 mph72%29.70 "Hg15 mi
10:00 AM59 °FScattered clouds.7 mph59%29.70 "Hg15 mi
9:00 AM55 °FScattered clouds.6 mph72%29.70 "Hg15 mi
8:00 AM52 °FScattered clouds.5 mph77%29.70 "Hg15 mi
7:00 AM48 °FScattered clouds.5 mph87%29.69 "Hg15 mi
6:00 AM45 °FScattered clouds.3 mph93%29.69 "Hg15 mi
Weather by CustomWeather, © 2014

See weather overviewHow to use our weather pages